[[{"header":{"parameterUnit":"m.s-1","parameterCategory":1,"la1":30.2991,"la2":30.254,"lo1":-89.0895,"lo2":-89.0444,"dy":0.0017,"dx":0.0017,"nx":28,"ny":28,"refTime":"2024-08-12T03:00:00:Z","depth":0,"parameterNumber":2,"parameterNumberName":"U-component_of_WINDS"},"data":[0,0,0,0,0,0,0,0,0,0,0,0,0,0,0,0,0,0,0,0,0,0,0,0,0,0,0,0,0,0,0,0,0,0,0,0,0,0,0,0,0,0,0,0,0,0,0,0,0,0,0,0,0,0,0,0,0,0,1.4843,1.4845,0,1.5014,1.5016,1.5018,1.5062,1.506,1.5059,1.5058,1.5236,1.5242,1.5248,0,0,0,0,0,0,0,0,0,0,0,0,0,1.4555,1.456,1.4843,1.4845,1.4847,1.5014,1.5016,1.5019,1.5062,1.506,1.5059,1.5058,1.5235,1.5241,1.5248,0,0,0,0,0,0,0,0,0,0,0,0,0,1.4699,1.4562,1.4843,1.4889,1.4895,1.5014,1.5017,1.5019,1.5062,1.506,1.5059,1.5057,1.5232,1.5241,1.5249,1.5335,0,0,1.5276,1.5279,0,0,0,0,0,0,0,0,1.469,1.4709,1.488,1.4886,1.4892,1.5015,1.498,1.5126,1.5062,1.4999,1.5058,1.5056,1.5164,1.5178,1.5214,1.5344,1.5351,1.5276,1.5282,1.5285,1.5288,0,0,0,0,0,0,0,1.468,1.4702,1.4911,1.4882,1.489,1.4902,1.492,1.5008,1.5089,1.5004,1.5007,1.5027,1.5167,1.5206,1.5219,1.5354,1.5276,1.5284,1.5289,1.5293,1.5563,1.5565,0,0,0,0,0,0,1.4662,1.4693,1.4905,1.4916,1.4785,1.4908,1.4929,1.4977,1.5088,1.5103,1.5028,1.5028,1.5192,1.5209,1.5225,1.5333,1.5285,1.5293,1.5298,1.5561,1.5563,1.5566,0,0,0,0,0,0,1.4656,1.4681,1.4899,1.4806,1.4834,1.4915,1.4969,1.4982,1.502,1.5106,1.5121,1.5052,1.5191,1.5213,1.5307,1.534,1.5297,1.5305,1.5559,1.5562,1.5564,1.5549,0,0,0,0,0,0,1.4647,1.4678,1.4711,1.4806,1.4839,1.4977,1.4971,1.4986,1.5034,1.5036,1.5133,1.5147,1.5192,1.5294,1.5316,1.5351,1.5312,1.5556,1.556,1.5564,1.5547,1.5551,1.5554,0,0,0,0,0,1.4637,1.47,1.4712,1.4738,1.4882,1.4979,1.4998,1.5047,1.5037,1.5071,1.5126,1.5144,1.5333,1.5304,1.5328,1.5366,1.5554,1.5559,1.5563,1.5545,1.555,1.5554,0,0,0,0,0,0,1.4608,1.4714,1.4728,1.4824,1.4892,1.4986,1.503,1.5051,1.5123,1.5122,1.5181,1.5202,1.5293,1.5339,1.5305,1.5455,1.5444,1.5453,1.5421,1.5427,1.543,1.5417,1.5319,0,0,0,0,0,1.4612,1.4681,1.4771,1.4847,1.488,1.4949,1.4993,1.5025,1.5098,1.5127,1.519,1.526,1.5336,1.5384,1.5458,1.5554,1.5576,1.5593,1.5596,1.5599,1.5606,1.566,1.5668,1.558,1.558,1.558,0,0,1.4623,1.4689,1.4729,1.4843,1.4899,1.497,1.4973,1.5048,1.5101,1.5139,1.5231,1.528,1.5363,1.5458,1.5503,1.55,1.5636,1.5605,1.5606,1.5612,1.5666,1.5674,1.5681,1.5583,1.5583,1.5582,0,0,1.4677,1.4735,1.4804,1.486,1.4945,1.4991,1.5008,1.5099,1.5132,1.5226,1.5255,1.532,1.5449,1.5506,1.5553,1.5629,1.5649,1.5652,1.5672,1.5723,1.573,1.5737,1.5764,1.5773,1.566,1.566,1.566,0,1.4679,1.4786,1.4837,1.4911,1.496,1.4997,1.5068,1.512,1.5225,1.5258,1.5253,1.5415,1.5473,1.5582,1.5601,1.5638,1.5658,1.5641,1.5725,1.5732,1.5739,1.5765,1.5775,1.5659,1.5659,1.5659,1.5659,0,1.4785,1.4859,1.4905,1.5004,1.5058,1.513,1.5192,1.5242,1.5269,1.5316,1.5411,1.5482,1.5571,1.56,1.5628,1.5713,1.5708,1.5713,1.5702,1.5746,1.5772,1.5782,1.5659,1.5659,1.5659,1.5659,0,0,1.4824,1.4951,1.4967,1.5013,1.511,1.5168,1.5242,1.5328,1.5369,1.5441,1.5504,1.5612,1.5617,1.5669,1.5704,1.575,1.5805,1.575,1.5753,1.5757,1.5903,1.5898,1.5909,1.5819,1.5821,1.5823,1.5896,0,1.489,1.5022,1.507,1.5179,1.5248,1.5284,1.5349,1.5415,1.5461,1.5527,1.5578,1.5653,1.5654,1.5686,1.5733,1.5788,1.5835,1.5784,1.5879,1.5881,1.5855,1.5922,1.5917,1.5982,1.5906,1.5908,1.5909,0,1.4984,1.5056,1.5171,1.5259,1.529,1.5346,1.5429,1.5492,1.5568,1.5598,1.5657,1.5689,1.5768,1.5753,1.5863,1.5827,1.5869,1.5902,1.5906,1.5916,1.5897,1.5933,1.6005,1.6014,1.5926,1.5925,1.5923,0,1.5,1.5126,1.5211,1.5249,1.5354,1.5393,1.5439,1.5514,1.5563,1.5636,1.5668,1.5749,1.5794,1.5857,1.591,1.5894,1.6015,1.6005,1.6042,1.6041,1.6065,1.6063,1.6143,1.6094,1.6094,1.6094,1.6093,0,1.5067,1.5136,1.5219,1.5271,1.535,1.5405,1.5481,1.553,1.5596,1.5659,1.5697,1.5755,1.5822,1.5889,1.5932,1.6016,1.6037,1.6063,1.6073,1.6059,1.6056,1.6087,1.6083,1.6096,1.6096,1.6095,1.6095,0,1.5098,1.5156,1.5251,1.5343,1.5368,1.5421,1.5501,1.5553,1.56,1.5679,1.5701,1.5776,1.5857,1.5917,1.6022,1.6051,1.614,1.6152,1.6114,1.6119,1.6153,1.6148,1.6255,1.6272,1.6212,1.6212,1.6213,0,1.5136,1.519,1.5288,1.5332,1.5377,1.5448,1.5498,1.5555,1.5606,1.5697,1.5739,1.5822,1.5892,1.602,1.6084,1.6165,1.6177,1.6209,1.619,1.6174,1.6177,1.6173,1.6178,1.6212,1.6212,1.6212,1.6213,0,1.5198,1.5224,1.5294,1.5375,1.5433,1.5499,1.5566,1.56,1.567,1.5725,1.5808,1.5861,1.5969,1.6051,1.6138,1.6186,1.6211,1.6218,1.6231,1.6217,1.6192,1.6205,1.612,1.6215,1.6215,1.6215,1.6215,1.6215,1.5233,1.5282,1.5359,1.5436,1.5492,1.5554,1.5607,1.5661,1.5731,1.5822,1.5852,1.5938,1.6014,1.6133,1.6182,1.6251,1.625,1.6269,1.6274,1.6277,1.6275,1.6182,1.6267,1.6267,1.6267,1.6267,1.6267,0,1.5296,1.5347,1.5417,1.5509,1.557,1.5588,1.5663,1.5713,1.5787,1.5856,1.5923,1.6019,1.6099,1.617,1.6253,1.6294,1.6308,1.6314,1.6311,1.6322,1.6272,1.6252,1.6302,1.6302,1.6302,1.6302,1.6302,1.6302,1.5336,1.542,1.5455,1.5568,1.5619,1.5702,1.5744,1.5801,1.5856,1.596,1.6027,1.6072,1.6142,1.6231,1.6306,1.6325,1.6353,1.6357,1.6378,1.633,1.6325,1.6321,1.6303,1.6363,1.6363,1.6423,1.6423,1.6424]},{"header":{"parameterUnit":"m.s-1","parameterCategory":1,"la1":30.2991,"la2":30.254,"lo1":-89.0895,"lo2":-89.0444,"dy":0.0017,"dx":0.0017,"nx":28,"ny":28,"refTime":"2024-08-12T03:00:00:Z","depth":0,"parameterNumber":3,"parameterNumberName":"V-component_of_WINDS"},"data":[0,0,0,0,0,0,0,0,0,0,0,0,0,0,0,0,0,0,0,0,0,0,0,0,0,0,0,0,0,0,0,0,0,0,0,0,0,0,0,0,0,0,0,0,0,0,0,0,0,0,0,0,0,0,0,0,0,0,4.1185,4.1185,0,4.1206,4.1206,4.1206,4.1172,4.1171,4.117,4.1169,4.1187,4.1188,4.119,0,0,0,0,0,0,0,0,0,0,0,0,0,4.1111,4.1112,4.1185,4.1185,4.1185,4.1206,4.1206,4.1206,4.1172,4.1171,4.117,4.1168,4.1186,4.1188,4.119,0,0,0,0,0,0,0,0,0,0,0,0,0,4.1139,4.1113,4.1185,4.1171,4.117,4.1206,4.1206,4.1207,4.1173,4.1171,4.1169,4.1168,4.1186,4.1188,4.119,4.124,0,0,4.1197,4.1198,0,0,0,0,0,0,0,0,4.1137,4.1141,4.1173,4.1172,4.1171,4.1185,4.1187,4.1218,4.1173,4.1171,4.1169,4.1167,4.1187,4.1189,4.1197,4.124,4.1241,4.1198,4.1199,4.12,4.1201,0,0,0,0,0,0,0,4.1135,4.114,4.1193,4.1173,4.1172,4.1162,4.1164,4.1192,4.1189,4.1171,4.1169,4.1172,4.1186,4.1195,4.1197,4.1241,4.1197,4.12,4.1201,4.1202,4.1327,4.1328,0,0,0,0,0,0,4.1135,4.1139,4.1192,4.1194,4.1149,4.1165,4.1167,4.1182,4.1188,4.1188,4.1174,4.1171,4.1192,4.1194,4.1198,4.1256,4.12,4.1202,4.1204,4.1325,4.1327,4.1329,0,0,0,0,0,0,4.1134,4.1141,4.1191,4.1166,4.1171,4.1168,4.1185,4.1183,4.1192,4.119,4.1189,4.1183,4.119,4.1194,4.123,4.1256,4.1203,4.1205,4.1322,4.1325,4.1328,4.1373,0,0,0,0,0,0,4.1132,4.114,4.116,4.1166,4.1173,4.1224,4.1187,4.1185,4.1196,4.1192,4.1199,4.1198,4.1189,4.1226,4.1232,4.1258,4.1207,4.132,4.1324,4.1327,4.1369,4.1377,4.1384,0,0,0,0,0,4.113,4.1171,4.1161,4.1168,4.1197,4.1226,4.1229,4.122,4.1199,4.1218,4.1217,4.1198,4.1253,4.123,4.1236,4.1264,4.1318,4.1323,4.1327,4.1366,4.1376,4.1384,0,0,0,0,0,0,4.1165,4.1171,4.116,4.1205,4.1216,4.122,4.1244,4.123,4.1245,4.1241,4.1227,4.1229,4.1267,4.1269,4.1244,4.1312,4.1282,4.1287,4.1309,4.1319,4.1326,4.1324,4.1209,0,0,0,0,0,4.1179,4.1203,4.1206,4.1245,4.1251,4.1247,4.1259,4.1251,4.126,4.1264,4.1265,4.1274,4.1293,4.1306,4.1324,4.137,4.137,4.1392,4.1399,4.1405,4.141,4.1434,4.1444,4.1343,4.1343,4.1343,0,0,4.1206,4.1212,4.1228,4.1253,4.126,4.1284,4.125,4.1277,4.1294,4.1267,4.1301,4.1303,4.1312,4.1353,4.1371,4.1356,4.1438,4.141,4.1415,4.1417,4.144,4.1449,4.1458,4.1346,4.1346,4.1345,0,0,4.1268,4.1276,4.1309,4.1318,4.1329,4.1326,4.1335,4.1342,4.1342,4.1376,4.1356,4.1376,4.141,4.1417,4.1425,4.1491,4.1475,4.1497,4.1536,4.156,4.1568,4.1575,4.1598,4.1607,4.1502,4.1502,4.1503,0,4.13,4.1337,4.1328,4.1357,4.1368,4.1346,4.1379,4.1387,4.1404,4.1411,4.1394,4.1436,4.1441,4.1483,4.15,4.1507,4.1515,4.1496,4.1568,4.1574,4.1581,4.1603,4.1612,4.1505,4.1505,4.1505,4.1504,0,4.1376,4.1402,4.1427,4.1446,4.146,4.1491,4.1485,4.15,4.1491,4.149,4.1524,4.1529,4.1548,4.1557,4.1548,4.1599,4.1589,4.157,4.1539,4.1593,4.1614,4.1622,4.1509,4.1508,4.1507,4.1507,0,0,4.146,4.1474,4.1484,4.1492,4.1504,4.1523,4.1553,4.1572,4.1585,4.1597,4.1622,4.1651,4.1634,4.1643,4.1634,4.1656,4.1708,4.1634,4.1634,4.1648,4.1764,4.1778,4.1788,4.1697,4.1699,4.17,4.1763,0,4.1522,4.1575,4.1568,4.1619,4.1642,4.1622,4.1648,4.1658,4.1657,4.1676,4.1675,4.1696,4.1672,4.1678,4.1698,4.1697,4.1731,4.1693,4.1719,4.172,4.1717,4.1799,4.1814,4.1874,4.1771,4.1773,4.1774,0,4.1601,4.1619,4.1672,4.1681,4.169,4.1714,4.1732,4.175,4.1761,4.1759,4.177,4.1758,4.1786,4.1756,4.1795,4.1769,4.1779,4.178,4.1782,4.1784,4.175,4.1803,4.1892,4.1901,4.1786,4.1785,4.1785,0,4.1658,4.1694,4.173,4.1738,4.175,4.1767,4.1772,4.1781,4.1793,4.1808,4.1816,4.1833,4.1843,4.1856,4.1849,4.1827,4.1889,4.1858,4.1888,4.1888,4.1901,4.1901,4.1994,4.1909,4.1908,4.1908,4.1908,0,4.1727,4.1761,4.1756,4.1779,4.1815,4.1806,4.1843,4.1845,4.1853,4.1875,4.1859,4.1879,4.1868,4.1888,4.1882,4.1915,4.1919,4.1918,4.1916,4.192,4.192,4.1926,4.1922,4.1911,4.191,4.191,4.1909,0,4.1796,4.1794,4.1833,4.1842,4.1844,4.1871,4.1878,4.1898,4.1897,4.1925,4.1931,4.1929,4.1951,4.1945,4.1969,4.1965,4.2007,4.2,4.2004,4.2003,4.2033,4.203,4.2133,4.2146,4.2053,4.2053,4.2054,0,4.184,4.1866,4.1878,4.1892,4.19,4.1923,4.1936,4.1928,4.1942,4.1957,4.1975,4.1997,4.2013,4.205,4.2049,4.2067,4.206,4.2095,4.2063,4.2066,4.2061,4.206,4.2062,4.2101,4.2102,4.2103,4.2104,0,4.192,4.1918,4.1939,4.1959,4.1976,4.1991,4.2005,4.2017,4.201,4.2027,4.2051,4.2064,4.2089,4.211,4.2127,4.2131,4.2116,4.2114,4.2122,4.2126,4.2128,4.2127,4.2022,4.2112,4.2111,4.2111,4.211,4.211,4.1977,4.2,4.2012,4.2035,4.2045,4.2059,4.2079,4.2081,4.2101,4.2123,4.2116,4.2143,4.2153,4.2174,4.2181,4.2201,4.2187,4.2199,4.2202,4.2205,4.2209,4.2125,4.2204,4.2203,4.2203,4.2203,4.2203,0,4.2056,4.2063,4.2085,4.2106,4.2124,4.2111,4.2126,4.2141,4.2166,4.2177,4.2194,4.2222,4.2242,4.2244,4.2263,4.2279,4.2273,4.2284,4.2283,4.2284,4.2219,4.2211,4.2289,4.2289,4.2289,4.2289,4.2289,4.2289,4.2099,4.2136,4.2136,4.2177,4.2184,4.2212,4.2221,4.2233,4.2242,4.2274,4.2292,4.2294,4.2301,4.2321,4.2339,4.2339,4.2347,4.2361,4.2358,4.2297,4.2289,4.2281,4.2272,4.2362,4.2363,4.2421,4.2422,4.2422]}]]